Погода в Пазаре

Турция     41°10′48″N   40°53′03″E
темп.,
°C
ветер,
м/с
пор.,
м/с
влажн.,
%
обл.,
%
осадки,
мм/ч
давл.,
гПа
погр.,
м
20 сентября, пн
пн2000:00+21ююз336821 0.1 1016254
03:00+21ю11655 0.2 1015156
06:00+21ююв11644 0.0 1015146
09:00+22ссз22675 0.0 1015189
12:00+23ссв33674 0.0 1014333
15:00+23св22605 0.0 1014274
18:00+22св22687 0.0 1014223
21:00+22в12635 0.0 101595
21 сентября, вт
вт2100:00+22вюв22620 0.0 1015105
03:00+22вюв12610 0.0 101497
06:00+22ююв22560 0.0 101350
09:00+25ссв22530 0.0 101267
12:00+26св345798 0.0 1011344
15:00+26зсз5660100 0.0 1012288
18:00+24зюз5769100 0.0 1014228
21:00+22юз697797 0.0 1015578
22 сентября, ср
ср2200:00+21юз5676100 1.6 1015401
03:00+20юз5683100 5.1 1014388
06:00+20зюз5688100 5.8 1013478
09:00+18сз3484100 18.9 1015610
12:00+18ююв3381100 4.8 1015270
15:00+19ю578399 10.1 1014493
18:00+18сз6790100 3.1 1015610
21:00+18ссв5691100 7.8 1014582
23 сентября, чт
чт2300:00+17ссз3392100 5.1 1013304
03:00+17сз4493100 11.8 1012381
06:00+18с5487100 3.6 1010431
09:00+18ссв4488100 6.3 1009535
12:00+18св338482 0.6 1008552
15:00+18юв228893 1.4 1008275
18:00+18в3483100 1.0 1007495
21:00+17зсз4490100 5.0 1008426
24 сентября, пт
пт2400:00+17ююз2285100 4.4 1008335
03:00+16ююз3286100 6.1 1008283
06:00+16зюз3387100 1.1 1009361
09:00+17юз6789100 4.7 1011595
12:00+16юз5691100 4.5 1013523
15:00+16зюз5689100 19.5 1015552
18:00+16зюз6685100 10.2 1018601
21:00+16юз6788100 14.7 1019590